Home   Weather   Township of Washington   Past weeks
Flag for USA

Past Weather in Township of Washington, Indiana, USA — Yesterday and Last 2 Weeks

Now
77 °F

Broken clouds.


Feels Like: 79 °F
Forecast: 79 / 66 °F
Wind: 12 mph from North

Location: Indianapolis International Airport

Current Time: May 26, 2019 at 7:42:16 pm

Latest Report: May 26, 2019 at 6:54 pm


Visibility: 10 mi

Pressure: 30.01 "Hg

Humidity: 66%

Dew Point: 65 °F

Location of Township of WashingtonLocation

Past Weather in Township of Washington — Graph

°F

Township of Washington Temperature Yesterday

Maximum temperature yesterday: 84 °F (at 12:54 pm)
Minimum temperature yesterday: 70 °F (at 1:54 am)
Average temperature yesterday: 77 °F

High & Low Weather Summary for the Past Weeks

 TemperatureHumidityPressure
High86 °F (May 24, 4:54 pm)100% (May 16, 5:54 am)30.14 "Hg (May 16, 5:54 am)
Low42 °F (May 14, 3:54 am)36% (May 14, 5:54 pm)29.72 "Hg (May 19, 5:54 pm)
Average64 °F76%29.94 "Hg
* Reported May 11 6:54 pm — May 26 6:54 pm, Township of Washington. Weather by CustomWeather, © 2019

Note: Actual official high and low records may vary slightly from our data, if they occured in-between our weather recording intervals... More about our weather records

Advertising

Township of Washington Weather History for the Previous 24 Hours

Scroll right to see more
 ConditionsComfort  
Time TempWeatherWind HumidityBarometerVisibility
6:54 pm
Sun, May 26
77 °FBroken clouds.12 mph66%30.01 "Hg10 mi
5:54 pm77 °FCloudy.13 mph62%30.02 "Hg10 mi
4:54 pm80 °FBroken clouds.5 mph54%30.00 "Hg10 mi
3:54 pm80 °FBroken clouds.7 mph56%30.02 "Hg10 mi
2:54 pm79 °FBroken clouds.No wind56%30.01 "Hg10 mi
1:54 pm78 °FBroken clouds.3 mph60%30.03 "Hg10 mi
12:54 pm77 °FBroken clouds.3 mph58%30.05 "Hg10 mi
11:54 am76 °FPartly sunny.6 mph62%30.05 "Hg10 mi
10:54 am74 °FBroken clouds.5 mph64%30.05 "Hg10 mi
9:54 am72 °FPartly sunny.No wind73%30.04 "Hg10 mi
8:54 am70 °FMostly cloudy.No wind81%30.05 "Hg10 mi
7:54 am68 °FBroken clouds.10 mph87%30.05 "Hg10 mi
6:54 am66 °FBroken clouds.6 mph90%30.01 "Hg10 mi
5:54 am67 °FPartly cloudy.7 mph87%30.01 "Hg10 mi
5:12 am70 °FLight rain. Overcast.17 mph79%30.05 "Hg10 mi
4:54 am74 °FPartly cloudy.13 mph82%30.01 "Hg10 mi
3:54 am73 °FPartly cloudy.10 mph88%29.98 "Hg10 mi
2:54 am71 °FPassing clouds.5 mph93%29.99 "Hg10 mi
1:54 am71 °FPassing clouds.5 mph90%30.00 "Hg10 mi
12:54 am71 °FPassing clouds.6 mph90%30.00 "Hg10 mi
11:54 pm
Sat, May 25
72 °FPassing clouds.8 mph87%30.01 "Hg10 mi
10:54 pm73 °FPassing clouds.8 mph79%30.00 "Hg10 mi
9:54 pm74 °FPassing clouds.8 mph71%29.98 "Hg10 mi
8:54 pm78 °FScattered clouds.6 mph62%29.99 "Hg10 mi
7:54 pm82 °FScattered clouds.12 mph53%30.00 "Hg10 mi
Weather by CustomWeather, © 2019

See weather overview